Terminal Aerodrome Forecast
Issued by NWS

Home | Current Version | Previous Version | Graphics & Text | Print | Product List | Glossary On
Versions: 1 2 3 4 5 6 7 8 9 10 11 12 13 14 15 16 17 18 19 20
518
FTUS43 KBIS 192211 AAA
TAFJMS
TAF AMD
KJMS 192211Z 1922/2018 02016KT 6SM -SN BKN035 OVC050
      TEMPO 1922/1924 4SM -SN SCT025 OVC035
     FM200000 01014KT 4SM -SN SCT025 OVC035
     FM200200 01014KT 3SM -SN SCT015 OVC025
     FM200600 36016KT 1 1/2SM -SN OVC015
     FM201200 34015KT P6SM -SN OVC020=

USA.gov is the U.S. government's official web portal to all federal, state and local government web resources and services.